sat.trackr.live / text

‹ back to catalog

MIMAN

NORAD 52900 · 2022-065G

PAYLOAD ACTIVE UNKNOWN

§ Identity

Operator
Country
SKOR
Launch date
2022-06-21
Launch site
NSC
Launch vehicle
Mass (kg)
RCS (m²)

External: N2YO · Heavens-Above · Gunter

§ Orbital elements

Epoch: 2026-09-20T09:25:22.267776Z

Period
98.50 min
Inclination
98.2404°
Eccentricity
0.0008856
Mean motion
14.61928871 rev/d
Perigee alt
680.7 km
Apogee alt
693.2 km
Semi-major
7,065.1 km
B*
7.1737e-5
RAAN
45.4771°
Arg perigee
89.3008°
Mean anomaly
270.9208°
Rev number
22,435

§ Raw data

MIMAN1 52900U 22065G   26263.39261884  .00000311  00000+0  71737-4 0  99942 52900  98.2404  45.4771 0008856  89.3008 270.9208 14.61928871224359

JSON: /api/v1/satellites/52900 · /tle

For live sub-satellite position, see the globe view (requires WebGL).

§ Visibility from observer

Set your observer location to see the next 7 days of passes ≥ 10°. The values pass through the URL so the page stays shareable.

No JS? Fill the form by hand. The geolocation button needs JavaScript.

§ Radio — SatNOGS DB

ModeDescriptionDownlinkUplink
FSK AX.100 Mode 5 Mode U - TLM 436.500 MHz

1 transmitter · refreshed weekly from db.satnogs.org